| time (UTC) | temp C | wind direction | speed KPH | gust KPH | rain 1hr cm | rain 24hr cm | rain mn cm | humidity % | barometer mb |
| 20260503053045 | 13 | 113 | 4.8 | 8.0 | 0.00 | 0.13 | 0.13 | 95 | 1008.8 |
| 20260503051542 | 13 | 108 | 3.2 | 6.4 | 0.00 | 0.13 | 0.13 | 95 | 1008.8 |
| 20260503050038 | 13 | 95 | 4.8 | 9.7 | 0.00 | 0.13 | 0.13 | 95 | 1008.6 |
| 20260503044606 | 12 | 123 | 3.2 | 6.4 | 0.00 | 0.13 | 0.13 | 95 | 1009.1 |
| 20260503043033 | 12 | 139 | 0.0 | 6.4 | 0.00 | 0.13 | 0.13 | 95 | 1009.6 |
| 20260503041530 | 12 | 138 | 1.6 | 6.4 | 0.00 | 0.13 | 0.13 | 95 | 1009.9 |
| 20260503040030 | 12 | 138 | 0.0 | 6.4 | 0.00 | 0.13 | 0.13 | 95 | 1009.9 |
| 20260503034532 | 12 | 137 | 0.0 | 6.4 | 0.00 | 0.13 | 0.13 | 95 | 1009.9 |
| 20260503033029 | 12 | 130 | 1.6 | 8.0 | 0.00 | 0.13 | 0.13 | 95 | 1009.8 |
| 20260503031528 | 12 | 132 | 1.6 | 6.4 | 0.00 | 0.13 | 0.13 | 95 | 1009.9 |
| 20260503030031 | 12 | 141 | 1.6 | 12.9 | 0.00 | 0.13 | 0.13 | 95 | 1010.0 |
| 20260503024526 | 12 | 136 | 4.8 | 12.9 | 0.00 | 0.13 | 0.13 | 95 | 1009.8 |
| 20260503023026 | 12 | 121 | 3.2 | 9.7 | 0.00 | 0.13 | 0.13 | 95 | 1009.6 |
| 20260503021525 | 12 | 87 | 6.4 | 11.3 | 0.00 | 0.13 | 0.13 | 94 | 1009.7 |
| 20260503020033 | 12 | 92 | 4.8 | 9.7 | 0.00 | 0.13 | 0.13 | 94 | 1009.8 |
| 20260503014523 | 12 | 122 | 4.8 | 9.7 | 0.00 | 0.13 | 0.13 | 94 | 1010.1 |
| 20260503013023 | 12 | 68 | 6.4 | 12.9 | 0.00 | 0.13 | 0.13 | 94 | 1009.7 |
| 20260503011521 | 12 | 63 | 4.8 | 12.9 | 0.03 | 0.13 | 0.13 | 93 | 1009.8 |
| 20260503010020 | 12 | 59 | 3.2 | 14.5 | 0.05 | 0.13 | 0.13 | 93 | 1010.1 |
| 20260503004518 | 12 | 63 | 3.2 | 11.3 | 0.08 | 0.13 | 0.13 | 93 | 1010.4 |
| 20260503003028 | 12 | 32 | 9.7 | 12.9 | 0.08 | 0.10 | 0.10 | 93 | 1010.4 |
| 20260503001513 | 13 | 32 | 4.8 | 9.7 | 0.10 | 0.10 | 0.10 | 93 | 1011.2 |
| 20260503000016 | 13 | 276 | 1.6 | 4.8 | 0.05 | 0.05 | 0.05 | 92 | 1011.9 |
| 20260502234510 | 13 | 275 | 0.0 | 6.4 | 0.05 | 0.05 | 0.05 | 91 | 1012.4 |
| 20260502233007 | 13 | 265 | 3.2 | 11.3 | 0.03 | 0.03 | 0.03 | 90 | 1012.6 |
| 20260502231507 | 13 | 208 | 9.7 | 30.6 | 0.00 | 0.00 | 0.00 | 91 | 1012.9 |
| 20260502230005 | 13 | 57 | 4.8 | 11.3 | 0.00 | 0.00 | 0.00 | 91 | 1011.7 |
| 20260502224503 | 13 | 72 | 4.8 | 11.3 | 0.00 | 0.00 | 0.00 | 91 | 1012.0 |
| 20260502223002 | 13 | 32 | 3.2 | 9.7 | 0.00 | 0.00 | 0.00 | 90 | 1011.9 |
| 20260502221603 | 13 | 119 | 3.2 | 6.4 | 0.00 | 0.00 | 0.00 | 90 | 1012.4 |
| 20260502220105 | 13 | 115 | 4.8 | 11.3 | 0.00 | 0.00 | 0.00 | 90 | 1012.1 |
| 20260502214614 | 13 | 51 | 4.8 | 12.9 | 0.00 | 0.00 | 0.00 | 90 | 1011.7 |
| 20260502213118 | 13 | 34 | 3.2 | 8.0 | 0.00 | 0.00 | 0.00 | 90 | 1012.0 |
| 20260502211557 | 13 | 28 | 4.8 | 11.3 | 0.00 | 0.00 | 0.00 | 89 | 1012.2 |
| 20260502210052 | 13 | 5 | 4.8 | 9.7 | 0.00 | 0.00 | 0.00 | 88 | 1012.2 |
| 20260502204550 | 13 | 9 | 1.6 | 8.0 | 0.00 | 0.00 | 0.00 | 87 | 1012.4 |
| 20260502203110 | 13 | 13 | 1.6 | 6.4 | 0.00 | 0.00 | 0.00 | 87 | 1012.7 |
| 20260502201546 | 14 | 18 | 3.2 | 8.0 | 0.00 | 0.00 | 0.00 | 85 | 1012.9 |
| 20260502200054 | 14 | 5 | 3.2 | 9.7 | 0.00 | 0.00 | 0.00 | 83 | 1013.0 |
| 20260502194545 | 15 | 355 | 1.6 | 6.4 | 0.00 | 0.00 | 0.00 | 82 | 1013.1 |
| 20260502193046 | 15 | 355 | 3.2 | 8.0 | 0.00 | 0.00 | 0.00 | 81 | 1013.0 |
| 20260502191547 | 15 | 360 | 4.8 | 14.5 | 0.00 | 0.00 | 0.00 | 78 | 1013.0 |
| 20260502190041 | 16 | 355 | 4.8 | 14.5 | 0.00 | 0.00 | 0.00 | 74 | 1012.9 |
| 20260502184540 | 16 | 10 | 4.8 | 11.3 | 0.00 | 0.00 | 0.00 | 68 | 1012.8 |
| 20260502183041 | 17 | 312 | 6.4 | 12.9 | 0.00 | 0.00 | 0.00 | 65 | 1012.7 |
| 20260502181538 | 17 | 332 | 6.4 | 16.1 | 0.00 | 0.00 | 0.00 | 61 | 1012.8 |
| 20260502163040 | 20 | 335 | 4.8 | 14.5 | 0.00 | 0.00 | 0.00 | 54 | 1013.6 |
| 20260502161539 | 21 | 284 | 8.0 | 14.5 | 0.00 | 0.00 | 0.00 | 58 | 1013.7 |
| 20260502151522 | 21 | 294 | 9.7 | 19.3 | 0.00 | 0.00 | 0.00 | 68 | 1014.2 |
| 20260502123009 | 21 | 268 | 9.7 | 19.3 | 0.00 | 0.00 | 0.00 | 67 | 1015.5 |
| 20260502121507 | 21 | 257 | 8.0 | 16.1 | 0.00 | 0.00 | 0.00 | 66 | 1015.4 |
| 20260502114501 | 20 | 217 | 11.3 | 20.9 | 0.00 | 0.00 | 0.00 | 69 | 1015.6 |
| 20260502113131 | 20 | 276 | 8.0 | 17.7 | 0.00 | 0.00 | 0.00 | 70 | 1015.9 |
| 20260502111557 | 20 | 213 | 6.4 | 17.7 | 0.00 | 0.00 | 0.00 | 69 | 1016.0 |
| 20260502110055 | 19 | 234 | 8.0 | 17.7 | 0.00 | 0.00 | 0.00 | 70 | 1016.1 |
| 20260502104554 | 19 | 269 | 11.3 | 19.3 | 0.00 | 0.00 | 0.00 | 69 | 1016.1 |
| 20260502103053 | 19 | 263 | 8.0 | 17.7 | 0.00 | 0.00 | 0.00 | 69 | 1016.1 |
| 20260502101548 | 17 | 254 | 3.2 | 9.7 | 0.00 | 0.00 | 0.00 | 70 | 1016.1 |
| 20260502071530 | 15 | 222 | 3.2 | 9.7 | 0.00 | 0.00 | 0.00 | 59 | 1016.3 |
| 20260502070030 | 15 | 219 | 3.2 | 11.3 | 0.00 | 0.00 | 0.00 | 59 | 1016.5 |
| 20260502064530 | 15 | 190 | 8.0 | 14.5 | 0.00 | 0.00 | 0.00 | 60 | 1016.5 |
| 20260502063024 | 15 | 227 | 4.8 | 12.9 | 0.00 | 0.00 | 0.00 | 60 | 1016.4 |
| 20260502061521 | 14 | 192 | 4.8 | 11.3 | 0.00 | 0.00 | 0.00 | 62 | 1016.3 |
| 20260502060017 | 13 | 185 | 4.8 | 11.3 | 0.00 | 0.00 | 0.00 | 64 | 1016.3 |
| 20260502054511 | 13 | 207 | 4.8 | 11.3 | 0.00 | 0.00 | 0.00 | 63 | 1016.3 |